Regional Weather Roundup
Issued by NWS

Home | Current Version | Previous Version | Text Only | Print | Product List | Glossary Off
Versions: 1 2 3 4 5 6 7 8 9 10 11 12 13 14 15 16 17 18 19 20 21 22 23 24 25 26 27 28 29 30 31 32 33 34 35 36 37 38 39 40 41 42 43 44 45 46 47 48 49 50

000
ASUS45 KTFX 182119
RWRMT
MONTANA HOURLY WEATHER ROUNDUP
NATIONAL WEATHER SERVICE GREAT FALLS MT
319 PM MDT THU SEP 18 2014

NOTE: "FAIR" INDICATES FEW OR NO CLOUDS BELOW 12000 FEET WITH NO
SIGNIFICANT WEATHER AND/OR OBSTRUCTIONS TO VISIBILITY.

* THESE STATIONS ARE NOT UNDER NWS QUALITY CONTROL. THEY DO NOT
   REPORT WEATHER SUCH AS PRECIPITATION OR FOG.

MTZ001>007-043-182200-
WEST OF THE DIVIDE
CITY           SKY/WX    TMP DP  RH WIND       PRES   REMARKS
KALISPELL      SMOKE     73  50  44 S5        29.71S
MISSOULA       HAZE      75  46  36 E5        29.77F
BUTTE          CLOUDY    70  48  46 N6        29.90F
MULLAN PASS    CLOUDY    61  39  44 VRB5      29.92F
* ESSEX        N/A       74  43  33 SE11G17    N/A
* LINCOLN      N/A       70  46  42 SW4G9      N/A
* LOOKOUT PASS N/A       66  41  40 SE4G9      N/A
* POLSON       N/A       78  47  34 SW4G11     N/A
* RONAN APT    PTCLDY    79  46  31 SE9        N/A
* SEELEY LAKE  N/A       74  47  38 S6         N/A
* THOMP F APT  PTCLDY    69  47  46 S8G13      N/A
$$

MTZ008-052>055-182200-
SOUTHWEST MONTANA
CITY           SKY/WX    TMP DP  RH WIND       PRES   REMARKS
BOZEMAN        LGT RAIN  64  57  78 NE3       29.86F
DILLON         PTSUNNY   72  50  46 SW12      29.90F
W YELLOWSTONE  PTSUNNY   66  50  56 SW13G18   29.98F
* THREE FORKS  CLOUDY    68  68 100 E5         N/A
* BOULDER HILL N/A       65  47  52 SW9G17     N/A
* MONIDA PASS  N/A       63  45  52 NW16       N/A
* RAYNOLDS PAS N/A       64  44  48 S12        N/A
* WHITEHALL    N/A       67  59  76 W5         N/A
* WISE RIVER   N/A       67  48  51 NW9G15     N/A
$$

MTZ009>010-012-014-046-048-049-054-182200-
EAST SLOPES AND CENTRAL MONTANA
CITY           SKY/WX    TMP DP  RH WIND       PRES   REMARKS
CUT BANK       HAZE      79  45  30 SW21G29   29.68F
GREAT FALLS    CLOUDY    73  48  41 SW15G23   29.74F
HELENA         HAZE      77  43  30 W6        29.79F
MALMSTROM AFB  CLOUDY    73  48  41 S14       29.75F
* CONRAD       CLOUDY    79  46  31 S10G24     N/A
* EAST GLACIER N/A       71  43  37 W15G26     N/A
* MONARCH      N/A       68  42  39 S7G16      N/A
* PENDROY      N/A       76  48  37 W17G24     N/A
* ROGERS PASS  N/A       67  40  37 E8G23      N/A
* SAINT MARY   N/A       73  44  35 SW7G20     N/A
* SWEET GRASS  N/A       75  43  32 SW16G22    N/A
* WHITE SULPH  N/A       65  50  58 S13G21     N/A
$$

MTZ011-013-016-021-035-040-045-047-050-051-182200-
NORTH CENTRAL MONTANA
CITY           SKY/WX    TMP DP  RH WIND       PRES   REMARKS
HAVRE          HAZE      75  46  36 SW13      29.64F
LEWISTOWN      CLOUDY    75  46  36 SW21G29   29.78S
* CHINOOK      CLOUDY    75  46  36 SW14G20   29.63S
* CHESTER      N/A       76  42  30 SW7G15     N/A
* DENTON       N/A       79  51  38 W14G20     N/A
* GEYSER       N/A       72  46  40 W17G22     N/A
* JUDITH GAP   N/A       67  55  66 S12        N/A
* LOMA         N/A       74  48  40 SW6        N/A
$$

MTZ017>020-022>027-061-062-182200-
NORTHEAST MONTANA
CITY           SKY/WX    TMP DP  RH WIND       PRES   REMARKS
GLASGOW        CLOUDY    75  57  54 W7        29.63F
GLENDIVE       CLOUDY    75  54  48 SW6       29.70F
JORDAN         CLOUDY    81  52  37 W9G21     29.64F
SIDNEY         CLOUDY   N/A N/A N/A S12       29.64F
WOLF POINT     CLOUDY    75  57  54 W8        29.60F
* BEAVER HILL  N/A       79  50  36 SW15G21    N/A
* CIRCLE       N/A       76  56  50 S7G15      N/A
* LINDSAY DVD  N/A       75  50  42 SW21G27    N/A
* NAVAJO       N/A       75  55  50 SW12G19    N/A
* SACO         N/A       77  55  47 SW11G16    N/A
$$

MTZ028>042-056>058-182200-
SOUTHCENTRAL AND SOUTHEAST MONTANA
CITY           SKY/WX    TMP DP  RH WIND       PRES   REMARKS
BAKER          CLOUDY    81  54  39 W10       29.76S
BILLINGS       CLOUDY    68  55  63 SW7       29.78F
LIVINGSTON     TSTM      70  55  59 NW9       29.83F
MILES CITY     CLOUDY    73  55  53 S5        29.70F
* LAUREL APT   CLOUDY    68  55  63 SW5        N/A
* ROUNDUP APT  CLOUDY    73  55  53 N/A        N/A
* ALZADA       N/A       86  52  31 E5         N/A
* HYSHAM       N/A       71  51  49 W8G17      N/A
* LAME DEER    N/A       71  51  49 W14G19     N/A
* REED POINT   N/A       79  52  39 SW1G6      N/A
* ROSCOE HILL  N/A       63  46  54 NW9G16     N/A
$$

REGIONAL REPORTS...DAKOTAS
CITY           SKY/WX    TMP DP  RH WIND       PRES   REMARKS
WILLISTON      CLOUDY    82  54  38 SW10      29.62F
DICKINSON      CLOUDY    79  57  47 S13       29.71F
BEACH          N/A       79  50  36 SW12      29.73F
CROSBY         SUNNY     79  55  44 SW13G21   29.59F
TIOGA          SUNNY     79  55  44 S16G22    29.66F
WATFORD CITY   SUNNY     81  54  39 S12       29.62F
BISMARCK       PTSUNNY   82  63  53 S18       29.73F HI  83
GRAND FORKS    SUNNY     73  57  57 S15G25    29.81F
FARGO          SUNNY     73  57  57 S17G28    29.85F
BUFFALO SD     CLOUDY    81  55  41 S7        29.72S HI  81
RAPID CITY     PTCLDY    88  55  33 SE16G22   29.77F
$$

REGIONAL REPORTS...WYOMING/IDAHO/WASHINGTON
CITY           SKY/WX    TMP DP  RH WIND       PRES   REMARKS
GILLETTE       PTCLDY    88  46  23 N25G32    29.82F
SHERIDAN       CLOUDY    79  52  39 NW24G30   29.85R
CODY           PTSUNNY  N/A N/A N/A N/A        N/A
YELLOWSTONE LA PTSUNNY   59  48  67 VRB3      30.11F
SALMON         CLOUDY    68  54  61 CALM      29.83F
MULLAN PASS    CLOUDY    61  39  44 VRB5      29.92S
SAND POINT     CLOUDY    72  48  43 CALM      29.74F
SPOKANE        PTSUNNY   81  43  26 SW21      29.74F
$$

REGIONAL REPORTS...ALBERTA
CITY           SKY/WX    TMP DP  RH WIND       PRES   REMARKS
CALGARY        CLOUDY    66  48  52 NE13      29.61R
LETHBRIDGE     PTSUNNY   82  39  22 W21G31    29.58F
MEDICINE HAT   SMOKE     75  52  45 SW13      29.56F VSB 3
EDMONTON       CLOUDY    63  50  63 NW8       29.59F
WATERTON GATE  N/A       72  39  30 W16G30     N/A
CARDSTON       N/A       73  45  37 W13G18     N/A
MILK RIVER     N/A       79  46  31 SW15G21    N/A
$$

REGIONAL REPORTS...SASKATCHEWAN
CITY           SKY/WX    TMP DP  RH WIND       PRES   REMARKS
SWIFT CURRENT  HAZE      79  43  28 W15       29.56R
MOOSE JAW      PTSUNNY   81  57  44 SW9       29.52F HI  81
REGINA         CLOUDY    77  59  54 S10       29.53F
VAL MARIE      N/A       75  52  45 SW12       N/A
ASSINIBOIA     N/A       79  50  36 W13        N/A
CORONACH       N/A       79  48  34 SW10       N/A

$$



USA.gov is the U.S. government's official web portal to all federal, state and local government web resources and services.